Caldwell, NJ

10:23 AM EST on December 05, 2019 (GMT -0500)
Essex County

Weather History for KCDW - July, 2019

Change the Weather History Date:

Tuesday, July 23, 2019

  Actual Average Record
Temperature  
Mean Temperature 72 °F -  
Max Temperature 77 °F 84 °F 100 °F (1955)
Min Temperature 66 °F 62 °F 50 °F (1981)
Cooling Degree Days 6    
Growing Degree Days 22 (Base 50)    
Moisture  
Dew Point 66 °F    
Average Humidity 86    
Maximum Humidity 97    
Minimum Humidity 64    
Precipitation  
Precipitation 0.56 in - - ()
Sea Level Pressure  
Sea Level Pressure 29.83 in    
Wind  
Wind Speed 4 mph (NE)    
Max Wind Speed 9 mph    
Max Gust Speed -    
Visibility 8 miles    
Events Rain    
Averages and records for this station are not official NWS values.
T = Trace of Precipitation, MM = Missing Value Source: NWS Daily Summary

Daily Weather History Graph

Daily Weather History Graph

Search for Another Location

Airport or City:

Astronomy

Jul. 23, 2019 Rise Set
Actual Time 5:44 AM EDT 8:21 PM EDT
Civil Twilight 5:13 AM EDT 8:53 PM EDT
Nautical Twilight 4:33 AM EDT 9:33 PM EDT
Astronomical Twilight 3:48 AM EDT 10:17 PM EDT
Moon No Moon Rise 11:58 AM EDT (7/23)
Length of Visible Light 15h 40m
Length of Day
14h 37m
Waning Gibbous, 63% of the Moon is Illuminated
Jul 23
Waning Gibbous
Jul 24
Last Quarter
Jul 31
New
Aug 7
First Quarter
Aug 15
Full

Hourly Weather History & Observations

Time (EDT) Temp. Dew Point Humidity Pressure Visibility Wind Dir Wind Speed Gust Speed Precip Events Conditions
12:53 AM 72.0 °F 71.1 °F 97% 29.77 in 10.0 mi ENE 3.5 mph - 0.03 in Rain Light Rain
1:53 AM 71.1 °F 69.1 °F 93% 29.78 in 8.0 mi Variable 3.5 mph - 0.02 in Rain Light Rain
2:05 AM 71.1 °F 69.1 °F 93% 29.77 in 4.0 mi ENE 5.8 mph - 0.02 in Rain Light Rain
2:39 AM 70.0 °F 68.0 °F 93% 29.76 in 10.0 mi NNE 4.6 mph - 0.04 in Rain Light Rain
2:53 AM 70.0 °F 68.0 °F 93% 29.77 in 10.0 mi Variable 4.6 mph - 0.04 in Rain Light Rain
3:22 AM 70.0 °F 68.0 °F 93% 29.76 in 10.0 mi Variable 3.5 mph - 0.01 in Rain Light Rain
3:53 AM 69.1 °F 66.9 °F 93% 29.77 in 8.0 mi NE 3.5 mph - 0.03 in Rain Light Rain
4:03 AM 69.1 °F 66.9 °F 93% 29.76 in 10.0 mi Calm Calm - 0.00 in Rain Light Rain
4:44 AM 69.1 °F 66.9 °F 93% 29.76 in 1.8 mi NNW 4.6 mph - 0.10 in Rain Heavy Rain
4:53 AM 68.0 °F 66.9 °F 96% 29.77 in 1.2 mi NNE 4.6 mph - 0.21 in Rain Heavy Rain
5:04 AM 68.0 °F 66.9 °F 96% 29.75 in 1.8 mi Variable 5.8 mph - 0.08 in Rain Heavy Rain
5:11 AM 68.0 °F 66.9 °F 96% 29.75 in 2.5 mi Variable 4.6 mph - 0.10 in Rain Rain
5:16 AM 68.0 °F 66.9 °F 96% 29.75 in 3.0 mi NE 6.9 mph - 0.11 in Rain Rain
5:43 AM 68.0 °F 66.0 °F 93% 29.75 in 9.0 mi NNE 6.9 mph - 0.12 in Rain Light Rain
5:53 AM 68.0 °F 66.0 °F 93% 29.78 in 4.0 mi Variable 3.5 mph - 0.15 in Rain Rain
6:08 AM 68.0 °F 66.0 °F 93% 29.75 in 4.0 mi Variable 4.6 mph - 0.03 in Rain Light Rain
6:22 AM 66.9 °F 66.0 °F 97% 29.76 in 3.0 mi Calm Calm - 0.06 in Rain Light Rain
6:53 AM 66.9 °F 64.9 °F 93% 29.78 in 6.0 mi North 3.5 mph - 0.08 in Rain Light Rain
7:45 AM 68.0 °F 66.0 °F 93% 29.78 in 10.0 mi NNE 4.6 mph - 0.00 in   Mostly Cloudy
7:53 AM 68.0 °F 66.0 °F 93% 29.80 in 10.0 mi North 4.6 mph - 0.00 in   Mostly Cloudy
8:53 AM 70.0 °F 66.0 °F 87% 29.82 in 10.0 mi NE 4.6 mph - N/A   Overcast
9:06 AM 70.0 °F 64.9 °F 84% 29.82 in 10.0 mi Variable 5.8 mph - N/A   Overcast
9:32 AM 69.1 °F 64.9 °F 87% 29.84 in 10.0 mi Variable 3.5 mph - N/A   Overcast
9:53 AM 70.0 °F 64.9 °F 84% 29.86 in 10.0 mi Variable 4.6 mph - N/A   Overcast
10:53 AM 72.0 °F 64.9 °F 78% 29.87 in 10.0 mi NE 5.8 mph - N/A   Overcast
11:53 AM 73.9 °F 64.9 °F 73% 29.88 in 10.0 mi ENE 6.9 mph - N/A   Overcast
12:00 PM 73.0 °F 64.0 °F 73% 29.86 in 10.0 mi ENE 9.2 mph - N/A   Overcast
12:53 PM 73.0 °F 64.9 °F 76% 29.87 in 10.0 mi NE 5.8 mph - N/A   Overcast
1:07 PM 73.0 °F 64.9 °F 76% 29.86 in 10.0 mi Variable 3.5 mph - N/A   Overcast
1:53 PM 73.9 °F 64.0 °F 71% 29.89 in 10.0 mi Variable 4.6 mph - N/A   Overcast
2:05 PM 75.9 °F 64.9 °F 69% 29.87 in 10.0 mi Calm Calm - N/A   Overcast
2:53 PM 77.0 °F 64.0 °F 64% 29.89 in 10.0 mi ENE 8.1 mph - N/A   Overcast
3:53 PM 77.0 °F 64.0 °F 64% 29.90 in 10.0 mi ENE 5.8 mph - N/A   Overcast
4:53 PM 75.0 °F 64.0 °F 69% 29.91 in 10.0 mi Calm Calm - N/A   Overcast
5:53 PM 73.0 °F 64.9 °F 76% 29.90 in 10.0 mi NE 5.8 mph - N/A   Overcast
6:53 PM 73.0 °F 66.9 °F 81% 29.92 in 10.0 mi ESE 3.5 mph - N/A   Overcast
7:53 PM 72.0 °F 66.9 °F 84% 29.91 in 10.0 mi East 6.9 mph - N/A   Overcast
8:53 PM 72.0 °F 66.9 °F 84% 29.93 in 10.0 mi ENE 3.5 mph - N/A   Overcast
9:53 PM 72.0 °F 66.0 °F 81% 29.95 in 10.0 mi Calm Calm - 0.00 in Rain Light Rain
10:53 PM 71.1 °F 66.9 °F 87% 29.91 in 10.0 mi ENE 3.5 mph - 0.00 in   Overcast
11:53 PM 70.0 °F 68.0 °F 93% 29.92 in 10.0 mi Calm Calm - N/A   Overcast